When you browse on this site, cookies collect data to enhance your experience and personalize the content and advertising you see.
Visit our Privacy Policy to learn more. By continuing to use the site, you agree to this use of cookies and data.
  • In Spain
  • List of Countries
  • For 7 days
  • Water Temperature
  • Satellite Maps
  • Weather Map
  • Weather Widgets
  • user-avatar
    Login

    Hourly Weather Gmyri

    Today, 19 July, Friday

    Time Temperature Precipitation Wind Pressure Humidity
    00:00 +13°C° 0.5 mm 4 mps 733 mmHg 97%
    01:00 +13°C° 0.5 mm 4 mps 733 mmHg 97%
    02:00 +13°C° 0.5 mm 5 mps 733 mmHg 97%
    03:00 +13°C° 0.3 mm 5 mps 733 mmHg 96%
    04:00 +13°C° 0.3 mm 5 mps 734 mmHg 96%
    05:00 +13°C° 0.3 mm 6 mps 734 mmHg 96%
    06:00 +13°C° 0.3 mm 5 mps 734 mmHg 96%
    07:00 +14°C° 0.3 mm 5 mps 735 mmHg 95%
    08:00 +14°C° 0.3 mm 5 mps 735 mmHg 94%
    09:00 +14°C° 0.3 mm 6 mps 735 mmHg 93%
    10:00 +14°C° 0.3 mm 6 mps 736 mmHg 92%
    11:00 +15°C° 0.3 mm 6 mps 736 mmHg 91%
    12:00 +15°C° 0.1 mm 6 mps 736 mmHg 89%
    13:00 +15°C° 0.1 mm 6 mps 737 mmHg 87%
    14:00 +16°C° 0.1 mm 7 mps 737 mmHg 85%
    15:00 +16°C° 0 mm 7 mps 737 mmHg 82%
    16:00 +17°C° 0 mm 7 mps 737 mmHg 79%
    17:00 +17°C° 0 mm 6 mps 738 mmHg 76%
    18:00 +16°C° 0 mm 6 mps 738 mmHg 79%
    19:00 +15°C° 0 mm 5 mps 738 mmHg 81%
    20:00 +14°C° 0 mm 4 mps 738 mmHg 83%
    21:00 +14°C° 0 mm 4 mps 738 mmHg 82%
    22:00 +14°C° 0 mm 4 mps 739 mmHg 81%
    23:00 +15°C° 0 mm 4 mps 739 mmHg 80%

    Tomorrow, 20 July, Saturday

    Time Temperature Precipitation Wind Pressure Humidity
    00:00 +14°C° 0 mm 4 mps 739 mmHg 84%
    01:00 +13°C° 0 mm 4 mps 739 mmHg 87%
    02:00 +12°C° 0 mm 4 mps 739 mmHg 91%
    03:00 +12°C° 0 mm 4 mps 740 mmHg 92%
    04:00 +12°C° 0 mm 4 mps 740 mmHg 92%
    05:00 +11°C° 0 mm 3 mps 740 mmHg 93%
    06:00 +13°C° 0 mm 4 mps 740 mmHg 89%
    07:00 +14°C° 0 mm 4 mps 741 mmHg 86%
    08:00 +17°C° 0 mm 4 mps 741 mmHg 82%
    09:00 +18°C° 0 mm 4 mps 741 mmHg 79%
    10:00 +19°C° 0 mm 5 mps 742 mmHg 76%
    11:00 +20°C° 0 mm 5 mps 742 mmHg 73%
    12:00 +21°C° 0.3 mm 5 mps 742 mmHg 73%
    13:00 +21°C° 0.3 mm 5 mps 742 mmHg 73%
    14:00 +22°C° 0.3 mm 5 mps 742 mmHg 73%
    15:00 +21°C° 0.3 mm 5 mps 742 mmHg 74%
    16:00 +21°C° 0.3 mm 4 mps 742 mmHg 75%
    17:00 +21°C° 0.3 mm 3 mps 742 mmHg 76%
    18:00 +20°C° 0 mm 3 mps 742 mmHg 79%
    19:00 +18°C° 0 mm 3 mps 742 mmHg 81%
    20:00 +16°C° 0 mm 3 mps 742 mmHg 83%
    21:00 +16°C° 0 mm 3 mps 743 mmHg 83%
    22:00 +15°C° 0 mm 2 mps 743 mmHg 83%
    23:00 +14°C° 0 mm 2 mps 743 mmHg 83%

    Day after tomorrow, 21 July, Sunday

    Time Temperature Precipitation Wind Pressure Humidity
    00:00 +14°C° 0 mm 2 mps 743 mmHg 85%
    01:00 +13°C° 0 mm 2 mps 743 mmHg 86%
    02:00 +13°C° 0 mm 2 mps 743 mmHg 87%
    03:00 +13°C° 0 mm 2 mps 743 mmHg 87%
    04:00 +13°C° 0 mm 2 mps 743 mmHg 87%
    05:00 +13°C° 0 mm 2 mps 743 mmHg 87%
    06:00 +15°C° 0 mm 2 mps 744 mmHg 83%
    07:00 +17°C° 0 mm 2 mps 744 mmHg 79%
    08:00 +19°C° 0 mm 2 mps 744 mmHg 75%
    09:00 +20°C° 0 mm 2 mps 744 mmHg 71%
    10:00 +21°C° 0 mm 2 mps 744 mmHg 67%
    11:00 +24°C° 0 mm 2 mps 744 mmHg 64%
    12:00 +24°C° 0 mm 2 mps 744 mmHg 63%
    13:00 +24°C° 0 mm 3 mps 744 mmHg 61%
    14:00 +25°C° 0 mm 3 mps 744 mmHg 60%
    15:00 +25°C° 0 mm 2 mps 744 mmHg 63%
    16:00 +25°C° 0 mm 2 mps 744 mmHg 65%
    17:00 +24°C° 0 mm 2 mps 744 mmHg 68%
    18:00 +23°C° 0 mm 1 mps 743 mmHg 73%
    19:00 +21°C° 0 mm 1 mps 743 mmHg 78%
    20:00 +17°C° 0 mm 0 mps 743 mmHg 82%
    21:00 +16°C° 0 mm 0 mps 743 mmHg 83%
    22:00 +16°C° 0 mm 0 mps 743 mmHg 83%
    23:00 +15°C° 0 mm 0 mps 743 mmHg 84%

    22 July, Monday

    Time Temperature Precipitation Wind Pressure Humidity
    00:00 +16°C° 0 mm 1 mps 743 mmHg 85%
    01:00 +15°C° 0 mm 1 mps 743 mmHg 86%
    02:00 +15°C° 0 mm 1 mps 743 mmHg 87%
    03:00 +15°C° 0 mm 1 mps 743 mmHg 88%
    04:00 +15°C° 0 mm 1 mps 742 mmHg 88%
    05:00 +16°C° 0 mm 2 mps 742 mmHg 88%
    06:00 +17°C° 0 mm 2 mps 742 mmHg 85%
    07:00 +18°C° 0 mm 2 mps 742 mmHg 83%
    08:00 +20°C° 0 mm 3 mps 742 mmHg 80%
    09:00 +21°C° 0.7 mm 3 mps 742 mmHg 79%
    10:00 +22°C° 0.7 mm 3 mps 741 mmHg 78%
    11:00 +24°C° 0.7 mm 3 mps 741 mmHg 77%
    12:00 +24°C° 1.3 mm 3 mps 741 mmHg 78%
    13:00 +23°C° 1.3 mm 2 mps 741 mmHg 80%
    14:00 +23°C° 1.3 mm 2 mps 740 mmHg 81%
    15:00 +21°C° 0.5 mm 2 mps 740 mmHg 85%
    16:00 +20°C° 0.5 mm 2 mps 740 mmHg 89%
    17:00 +18°C° 0.5 mm 2 mps 740 mmHg 93%
    18:00 +18°C° 0.6 mm 2 mps 740 mmHg 94%
    19:00 +17°C° 0.6 mm 2 mps 740 mmHg 96%
    20:00 +17°C° 0.6 mm 2 mps 740 mmHg 97%
    21:00 +17°C° 0.5 mm 2 mps 740 mmHg 97%
    22:00 +17°C° 0.5 mm 2 mps 739 mmHg 97%
    23:00 +17°C° 0.5 mm 2 mps 739 mmHg 98%

    23 July, Tuesday

    Time Temperature Precipitation Wind Pressure Humidity
    00:00 +17°C° 0.4 mm 2 mps 739 mmHg 98%
    01:00 +17°C° 0.4 mm 2 mps 739 mmHg 98%
    02:00 +16°C° 0.4 mm 2 mps 739 mmHg 98%
    03:00 +16°C° 1.2 mm 2 mps 739 mmHg 98%
    04:00 +16°C° 1.2 mm 3 mps 739 mmHg 98%
    05:00 +16°C° 1.2 mm 3 mps 739 mmHg 98%
    06:00 +15°C° 1.2 mm 4 mps 739 mmHg 98%
    07:00 +15°C° 1.2 mm 4 mps 739 mmHg 97%
    08:00 +14°C° 1.2 mm 5 mps 739 mmHg 97%
    09:00 +14°C° 0.7 mm 5 mps 740 mmHg 96%
    10:00 +14°C° 0.7 mm 5 mps 740 mmHg 96%
    11:00 +14°C° 0.7 mm 5 mps 740 mmHg 95%
    12:00 +15°C° 0.1 mm 4 mps 741 mmHg 95%
    13:00 +15°C° 0.1 mm 4 mps 741 mmHg 95%
    14:00 +15°C° 0.1 mm 4 mps 741 mmHg 95%
    15:00 +15°C° 0 mm 4 mps 741 mmHg 94%
    16:00 +15°C° 0 mm 4 mps 741 mmHg 93%
    17:00 +15°C° 0 mm 4 mps 741 mmHg 92%
    18:00 +15°C° 0.1 mm 4 mps 741 mmHg 90%
    19:00 +15°C° 0.1 mm 4 mps 741 mmHg 89%
    20:00 +15°C° 0.1 mm 4 mps 741 mmHg 87%
    21:00 +15°C° 0.2 mm 4 mps 741 mmHg 89%
    22:00 +15°C° 0.2 mm 4 mps 741 mmHg 90%
    23:00 +14°C° 0.2 mm 3 mps 741 mmHg 91%

    24 July, Wednesday

    Time Temperature Precipitation Wind Pressure Humidity
    00:00 +14°C° 0 mm 4 mps 741 mmHg 91%
    01:00 +13°C° 0 mm 4 mps 741 mmHg 92%
    02:00 +13°C° 0 mm 4 mps 741 mmHg 92%
    03:00 +12°C° 0 mm 4 mps 741 mmHg 92%
    04:00 +12°C° 0 mm 4 mps 741 mmHg 92%
    05:00 +12°C° 0 mm 4 mps 741 mmHg 92%
    06:00 +14°C° 0 mm 5 mps 741 mmHg 88%
    07:00 +15°C° 0 mm 5 mps 741 mmHg 84%
    08:00 +16°C° 0 mm 5 mps 741 mmHg 80%
    09:00 +17°C° 0 mm 6 mps 742 mmHg 73%
    10:00 +19°C° 0 mm 6 mps 742 mmHg 67%
    11:00 +21°C° 0 mm 6 mps 742 mmHg 60%
    12:00 +21°C° 0 mm 6 mps 742 mmHg 60%
    13:00 +22°C° 0 mm 6 mps 742 mmHg 59%
    14:00 +22°C° 0 mm 6 mps 742 mmHg 59%
    15:00 +22°C° 0 mm 5 mps 742 mmHg 63%
    16:00 +22°C° 0 mm 4 mps 742 mmHg 68%
    17:00 +22°C° 0 mm 3 mps 742 mmHg 72%
    18:00 +20°C° 0.1 mm 3 mps 741 mmHg 75%
    19:00 +19°C° 0.1 mm 4 mps 741 mmHg 78%
    20:00 +17°C° 0.1 mm 4 mps 741 mmHg 82%
    21:00 +15°C° 0 mm 4 mps 741 mmHg 83%
    22:00 +14°C° 0 mm 4 mps 741 mmHg 84%
    23:00 +14°C° 0 mm 4 mps 741 mmHg 85%
    Show more